Location: Jackson Park
(37.2862°N, 79.9123°W)
Time: 19:49:09
(UTC+00:00)

Vanguard 2 - Pass Details

Date: 12 May 2026
Orbit: 553 x 2894 km, 32.9° (Epoch: 6 June)

Event Time Altitude Azimuth Distance (km) Brightness Sun altitude
Rises 09:49:02 0° 258° (WSW) 6,730 - -5.2°
Exits shadow 09:50:30 - 258° (WSW) 6,394 11.6 -5.0°
Reaches altitude 10° 09:53:37 10° 257° (WSW) 5,674 11.3 -4.4°
Maximum altitude 10:10:36 74° 177° (S) 2,429 10.0 -1.4°
Drops below altitude 10° 10:22:03 10° 95° (E) 4,005 12.4 0.7°
Sets 10:24:43 0° 94° (E) 4,726 12.9 1.2°
